ARP892 VOMM-VCBI

Flight info

Callsign ARP892
Flight time 1h 0m
Altitude 37000
Route TEGUT2B TEGUT V7 SAGOR SAGOR1A
Aircraft B738/M-SDE2E3FGHIRWXY/LB1

Departure

Time 2026-05-04 18:58
Airport Chennai International Airport (VOMM)

Arrival

Time 2026-05-04 19:59
Airport Bandaranaike International Colombo Airport (VCBI)
Time Latitude Longitude Altitude Speed Heading
2026-05-04 18:13 12.99812 80.16689 54 ft 0 kts 26°
2026-05-04 18:44 12.99800 80.16683 54 ft 2 kts 38°
2026-05-04 18:45 12.99788 80.16674 54 ft 2 kts 52°
2026-05-04 18:45 12.99780 80.16660 54 ft 3 kts 83°
2026-05-04 18:45 12.99781 80.16647 54 ft 2 kts 107°
2026-05-04 18:45 12.99786 80.16637 54 ft 2 kts 117°
2026-05-04 18:46 12.99789 80.16631 54 ft 0 kts 118°
2026-05-04 18:50 12.99786 80.16635 54 ft 3 kts 118°
2026-05-04 18:50 12.99764 80.16680 50 ft 11 kts 116°
2026-05-04 18:50 12.99723 80.16768 55 ft 16 kts 117°
2026-05-04 18:50 12.99667 80.16873 55 ft 17 kts 121°
2026-05-04 18:51 12.99610 80.16986 52 ft 18 kts 117°
2026-05-04 18:51 12.99550 80.17099 52 ft 18 kts 117°
2026-05-04 18:51 12.99528 80.17178 49 ft 11 kts 72°
2026-05-04 18:51 12.99604 80.17209 56 ft 11 kts
2026-05-04 18:52 12.99634 80.17269 54 ft 12 kts 117°
2026-05-04 18:52 12.99600 80.17337 49 ft 0 kts 118°
2026-05-04 18:52 12.99598 80.17340 56 ft 1 kts 118°
2026-05-04 18:52 12.99593 80.17352 56 ft 1 kts 116°
2026-05-04 18:53 12.99597 80.17373 49 ft 8 kts 52°
2026-05-04 18:53 12.99637 80.17276 53 ft 13 kts 281°
2026-05-04 18:53 12.99699 80.17216 50 ft 13 kts 357°
2026-05-04 18:53 12.99793 80.17219 50 ft 13 kts
2026-05-04 18:54 12.99847 80.17257 52 ft 11 kts 91°
2026-05-04 18:54 12.99807 80.17328 53 ft 12 kts 116°
2026-05-04 18:54 12.99765 80.17410 53 ft 14 kts 121°
2026-05-04 18:54 12.99712 80.17491 50 ft 14 kts 115°
2026-05-04 18:55 12.99680 80.17566 49 ft 14 kts 111°
2026-05-04 18:55 12.99591 80.17752 53 ft 15 kts 119°
2026-05-04 18:55 12.99545 80.17843 54 ft 14 kts 116°
2026-05-04 18:56 12.99502 80.17928 52 ft 13 kts 116°
2026-05-04 18:56 12.99477 80.18006 60 ft 9 kts 109°
2026-05-04 18:56 12.99444 80.18019 61 ft 5 kts 225°
2026-05-04 18:56 12.99428 80.17988 60 ft 0 kts 249°
2026-05-04 18:57 12.99414 80.17952 60 ft 24 kts 248°
2026-05-04 18:57 12.99263 80.17551 60 ft 98 kts 248°
2026-05-04 18:58 12.98940 80.16683 72 ft 157 kts 250°
2026-05-04 18:58 12.98511 80.15707 882 ft 150 kts 238°
2026-05-04 18:58 12.97995 80.14646 1446 ft 181 kts 245°
2026-05-04 18:58 12.97495 80.13483 2324 ft 176 kts 245°
2026-05-04 18:59 12.96983 80.12307 2871 ft 190 kts 243°
2026-05-04 18:59 12.96393 80.10991 3220 ft 213 kts 242°
2026-05-04 18:59 12.95965 80.09500 3783 ft 230 kts 252°
2026-05-04 18:59 12.95554 80.07835 4400 ft 249 kts 251°
2026-05-04 19:00 12.95008 80.06087 5115 ft 265 kts 248°
2026-05-04 19:00 12.94333 80.04275 5741 ft 279 kts 247°
2026-05-04 19:00 12.93605 80.02426 5817 ft 278 kts 247°
2026-05-04 19:00 12.92883 80.00575 5877 ft 281 kts 248°
2026-05-04 19:01 12.92162 79.98706 5986 ft 283 kts 248°
2026-05-04 19:01 12.91432 79.96783 6572 ft 289 kts 248°
2026-05-04 19:01 12.90710 79.94858 7567 ft 290 kts 249°
2026-05-04 19:01 12.89954 79.92928 8448 ft 294 kts 244°
2026-05-04 19:02 12.88986 79.91063 9311 ft 299 kts 242°
2026-05-04 19:02 12.87979 79.89179 10116 ft 304 kts 241°
2026-05-04 19:02 12.86927 79.87227 10623 ft 321 kts 242°
2026-05-04 19:02 12.85822 79.85170 11089 ft 338 kts 242°
2026-05-04 19:03 12.84672 79.83019 11681 ft 349 kts 242°
2026-05-04 19:03 12.83498 79.80823 12446 ft 354 kts 242°
2026-05-04 19:03 12.82323 79.78630 13248 ft 357 kts 241°
2026-05-04 19:03 12.81124 79.76391 14048 ft 360 kts 241°
2026-05-04 19:04 12.79890 79.74133 14814 ft 364 kts 237°
2026-05-04 19:04 12.78274 79.72127 15595 ft 367 kts 223°
2026-05-04 19:04 12.76213 79.70575 16327 ft 370 kts 208°
2026-05-04 19:04 12.73838 79.69517 17038 ft 373 kts 201°
2026-05-04 19:05 12.71399 79.68568 17725 ft 377 kts 200°
2026-05-04 19:05 12.68931 79.67640 18430 ft 379 kts 200°
2026-05-04 19:05 12.66450 79.66698 19097 ft 382 kts 200°
2026-05-04 19:05 12.63960 79.65729 19724 ft 385 kts 201°
2026-05-04 19:06 12.61451 79.64740 20313 ft 388 kts 201°
2026-05-04 19:06 12.58917 79.63743 20891 ft 391 kts 201°
2026-05-04 19:06 12.56363 79.62749 21432 ft 394 kts 200°
2026-05-04 19:06 12.53784 79.61751 21968 ft 398 kts 200°
2026-05-04 19:07 12.51189 79.60744 22467 ft 401 kts 200°
2026-05-04 19:07 12.49104 79.59933 22859 ft 403 kts 200°
2026-05-04 19:07 12.46476 79.58908 23332 ft 406 kts 201°
2026-05-04 19:07 12.43829 79.57874 23781 ft 408 kts 201°
2026-05-04 19:08 12.41164 79.56834 24212 ft 411 kts 200°
2026-05-04 19:08 12.38476 79.55788 24624 ft 414 kts 200°
2026-05-04 19:08 12.35775 79.54740 25028 ft 416 kts 200°
2026-05-04 19:08 12.33067 79.53686 25445 ft 418 kts 201°
2026-05-04 19:09 12.30338 79.52621 25859 ft 421 kts 201°
2026-05-04 19:09 12.27594 79.51553 26240 ft 423 kts 200°
2026-05-04 19:09 12.24832 79.50483 26609 ft 425 kts 201°
2026-05-04 19:09 12.22064 79.49409 26972 ft 427 kts 200°
2026-05-04 19:10 12.19249 79.48436 27287 ft 429 kts 192°
2026-05-04 19:10 12.16271 79.48229 27672 ft 431 kts 176°
2026-05-04 19:10 12.13277 79.48503 27993 ft 434 kts 173°
2026-05-04 19:10 12.10283 79.48942 28318 ft 436 kts 171°
2026-05-04 19:11 12.07292 79.49482 28632 ft 438 kts 170°
2026-05-04 19:11 12.04286 79.50014 28940 ft 439 kts 171°
2026-05-04 19:11 12.01291 79.50479 29235 ft 441 kts 173°
2026-05-04 19:11 11.98245 79.50904 29518 ft 443 kts 173°
2026-05-04 19:12 11.95187 79.51332 29809 ft 444 kts 172°
2026-05-04 19:12 11.89054 79.52255 30323 ft 447 kts 172°
2026-05-04 19:12 11.85972 79.52734 30565 ft 449 kts 172°
2026-05-04 19:13 11.82879 79.53206 30823 ft 449 kts 172°
2026-05-04 19:13 11.79782 79.53669 31065 ft 451 kts 172°
2026-05-04 19:13 11.76671 79.54135 31278 ft 453 kts 172°
2026-05-04 19:13 11.73551 79.54604 31522 ft 454 kts 172°
2026-05-04 19:14 11.70422 79.55076 31748 ft 455 kts 172°
2026-05-04 19:14 11.67286 79.55549 31967 ft 457 kts 172°
2026-05-04 19:14 11.64136 79.56024 32201 ft 458 kts 172°
2026-05-04 19:14 11.60989 79.56498 32503 ft 457 kts 172°
2026-05-04 19:15 11.57847 79.56971 32795 ft 456 kts 172°
2026-05-04 19:15 11.54709 79.57444 33095 ft 455 kts 172°
2026-05-04 19:15 11.51578 79.57915 33396 ft 454 kts 172°
2026-05-04 19:15 11.48455 79.58385 33703 ft 453 kts 172°
2026-05-04 19:16 11.45375 79.58847 33998 ft 452 kts 172°
2026-05-04 19:16 11.42265 79.59314 34302 ft 451 kts 172°
2026-05-04 19:16 11.39159 79.59779 34609 ft 450 kts 172°
2026-05-04 19:16 11.36070 79.60292 34898 ft 450 kts 170°
2026-05-04 19:17 11.33006 79.60963 35188 ft 450 kts 167°
2026-05-04 19:17 11.29967 79.61747 35465 ft 450 kts 166°
2026-05-04 19:17 11.26937 79.62525 35743 ft 450 kts 167°
2026-05-04 19:17 11.23889 79.63240 36022 ft 450 kts 168°
2026-05-04 19:18 11.20831 79.63900 36327 ft 448 kts 168°
2026-05-04 19:18 11.17785 79.64555 36573 ft 447 kts 168°
2026-05-04 19:18 11.14743 79.65242 36821 ft 447 kts 168°
2026-05-04 19:19 11.08654 79.66668 36903 ft 445 kts 168°
2026-05-04 19:19 11.02725 79.68019 36908 ft 433 kts 168°
2026-05-04 19:20 10.96826 79.69352 36904 ft 435 kts 168°
2026-05-04 19:20 10.90922 79.70705 36899 ft 434 kts 168°
2026-05-04 19:21 10.85016 79.72050 36896 ft 435 kts 168°
2026-05-04 19:21 10.79138 79.73386 36901 ft 436 kts 168°
2026-05-04 19:22 10.73228 79.74733 36905 ft 435 kts 168°
2026-05-04 19:22 10.67326 79.76077 36897 ft 434 kts 168°
2026-05-04 19:23 10.61433 79.77418 36902 ft 434 kts 168°
2026-05-04 19:23 10.55536 79.78756 36903 ft 434 kts 167°
2026-05-04 19:24 10.50622 79.79870 36898 ft 435 kts 168°
2026-05-04 19:24 10.43722 79.81443 36897 ft 434 kts 168°
2026-05-04 19:25 10.38819 79.82556 36895 ft 433 kts 168°
2026-05-04 19:25 10.32943 79.83888 36894 ft 432 kts 168°
2026-05-04 19:26 10.26110 79.85442 36895 ft 434 kts 168°
2026-05-04 19:26 10.21177 79.86559 36891 ft 434 kts 168°
2026-05-04 19:27 10.15318 79.87888 36894 ft 433 kts 168°
2026-05-04 19:27 10.09436 79.89221 36891 ft 432 kts 168°
2026-05-04 19:28 10.03569 79.90551 36886 ft 432 kts 168°
2026-05-04 19:28 9.97698 79.91882 36894 ft 432 kts 168°
2026-05-04 19:29 9.91820 79.93211 36891 ft 433 kts 168°
2026-05-04 19:29 9.85939 79.94542 36892 ft 433 kts 168°
2026-05-04 19:30 9.80063 79.95872 36886 ft 432 kts 168°
2026-05-04 19:30 9.74196 79.97198 36912 ft 432 kts 168°
2026-05-04 19:31 9.68343 79.98521 36903 ft 434 kts 168°
2026-05-04 19:31 9.62450 79.99851 36903 ft 434 kts 168°
2026-05-04 19:32 9.56555 80.01185 36914 ft 433 kts 168°
2026-05-04 19:32 9.50663 80.02517 36907 ft 433 kts 168°
2026-05-04 19:33 9.44789 80.03880 36892 ft 434 kts 162°
2026-05-04 19:33 9.39220 80.06123 36936 ft 432 kts 172°
2026-05-04 19:34 9.33227 80.06813 36496 ft 436 kts 176°
2026-05-04 19:34 9.30192 80.06862 35948 ft 435 kts 182°
2026-05-04 19:34 9.27206 80.06751 35398 ft 434 kts 182°
2026-05-04 19:34 9.24183 80.06676 34864 ft 434 kts 181°
2026-05-04 19:35 9.21162 80.06635 34334 ft 438 kts 180°
2026-05-04 19:35 9.18071 80.06600 33762 ft 447 kts 181°
2026-05-04 19:35 9.14968 80.06548 33226 ft 445 kts 181°
2026-05-04 19:35 9.11872 80.06480 32545 ft 444 kts 181°
2026-05-04 19:36 9.08766 80.06409 31691 ft 448 kts 181°
2026-05-04 19:36 9.05637 80.06344 30964 ft 450 kts 180°
2026-05-04 19:36 9.02515 80.06286 30383 ft 448 kts 180°
2026-05-04 19:36 8.99409 80.06231 29820 ft 445 kts 180°
2026-05-04 19:37 8.96324 80.06174 29285 ft 442 kts 180°
2026-05-04 19:37 8.93259 80.06115 28745 ft 438 kts 180°
2026-05-04 19:37 8.90217 80.06054 28209 ft 435 kts 180°
2026-05-04 19:37 8.87197 80.05993 27679 ft 433 kts 180°
2026-05-04 19:38 8.84200 80.05933 27153 ft 430 kts 180°
2026-05-04 19:38 8.81217 80.05875 26629 ft 427 kts 180°
2026-05-04 19:38 8.78255 80.05819 26111 ft 424 kts 180°
2026-05-04 19:38 8.75353 80.05764 25599 ft 421 kts 180°
2026-05-04 19:39 8.72428 80.05708 25085 ft 418 kts 180°
2026-05-04 19:39 8.69530 80.05651 24575 ft 415 kts 180°
2026-05-04 19:39 8.66648 80.05595 24070 ft 412 kts 180°
2026-05-04 19:39 8.63792 80.05539 23568 ft 409 kts 180°
2026-05-04 19:40 8.60951 80.05484 23075 ft 407 kts 180°
2026-05-04 19:40 8.58131 80.05429 22575 ft 404 kts 180°
2026-05-04 19:40 8.55318 80.05373 22089 ft 402 kts 180°
2026-05-04 19:40 8.52533 80.05319 21594 ft 399 kts 180°
2026-05-04 19:41 8.49772 80.05265 21110 ft 396 kts 180°
2026-05-04 19:41 8.47029 80.05211 20637 ft 393 kts 180°
2026-05-04 19:41 8.44342 80.05158 20159 ft 390 kts 180°
2026-05-04 19:41 8.41643 80.05107 19686 ft 387 kts 180°
2026-05-04 19:42 8.38959 80.05055 19216 ft 385 kts 180°
2026-05-04 19:42 8.36294 80.05004 18746 ft 382 kts 180°
2026-05-04 19:42 8.33646 80.04951 18280 ft 379 kts 180°
2026-05-04 19:42 8.31012 80.04899 17819 ft 376 kts 180°
2026-05-04 19:43 8.28408 80.04848 17360 ft 374 kts 180°
2026-05-04 19:43 8.25816 80.04798 16905 ft 371 kts 180°
2026-05-04 19:43 8.23245 80.04748 16455 ft 368 kts 180°
2026-05-04 19:43 8.20693 80.04699 16005 ft 365 kts 180°
2026-05-04 19:44 8.18164 80.04651 15559 ft 362 kts 181°
2026-05-04 19:44 8.15655 80.04601 15117 ft 359 kts 181°
2026-05-04 19:44 8.13168 80.04553 14682 ft 356 kts 181°
2026-05-04 19:44 8.10698 80.04505 14249 ft 353 kts 181°
2026-05-04 19:45 8.08255 80.04458 13816 ft 349 kts 181°
2026-05-04 19:45 8.05838 80.04412 13391 ft 346 kts 181°
2026-05-04 19:45 8.03444 80.04367 12972 ft 342 kts 181°
2026-05-04 19:45 8.01076 80.04321 12557 ft 338 kts 181°
2026-05-04 19:46 7.98764 80.04277 12151 ft 335 kts 181°
2026-05-04 19:46 7.96449 80.04232 11743 ft 331 kts 181°
2026-05-04 19:46 7.94165 80.04188 11335 ft 327 kts 182°
2026-05-04 19:46 7.91904 80.04143 10944 ft 323 kts 182°
2026-05-04 19:47 7.89671 80.04101 10555 ft 322 kts 182°
2026-05-04 19:47 7.87411 80.04062 10205 ft 326 kts 181°
2026-05-04 19:47 7.85192 80.04024 10066 ft 311 kts 182°
2026-05-04 19:47 7.83074 80.03984 9927 ft 299 kts 182°
2026-05-04 19:48 7.81024 80.03942 9683 ft 294 kts 182°
2026-05-04 19:48 7.78991 80.03903 9344 ft 291 kts 182°
2026-05-04 19:48 7.76982 80.03865 9057 ft 286 kts 182°
2026-05-04 19:48 7.75004 80.03828 8744 ft 283 kts 182°
2026-05-04 19:49 7.73046 80.03792 8420 ft 280 kts 182°
2026-05-04 19:49 7.71108 80.03754 8103 ft 277 kts 183°
2026-05-04 19:49 7.69188 80.03717 7784 ft 274 kts 182°
2026-05-04 19:49 7.67292 80.03680 7469 ft 271 kts 183°
2026-05-04 19:50 7.65413 80.03644 7152 ft 269 kts 183°
2026-05-04 19:50 7.63553 80.03607 6848 ft 266 kts 184°
2026-05-04 19:50 7.61710 80.03570 6544 ft 264 kts 183°
2026-05-04 19:50 7.59874 80.03536 6244 ft 263 kts 183°
2026-05-04 19:51 7.58050 80.03504 5931 ft 261 kts 184°
2026-05-04 19:51 7.56244 80.03469 5637 ft 259 kts 184°
2026-05-04 19:51 7.54446 80.03437 5341 ft 257 kts 183°
2026-05-04 19:51 7.52665 80.03405 5051 ft 256 kts 184°
2026-05-04 19:52 7.50902 80.03365 4762 ft 256 kts 185°
2026-05-04 19:52 7.49128 80.03328 4455 ft 254 kts 185°
2026-05-04 19:52 7.47365 80.03294 4162 ft 253 kts 184°
2026-05-04 19:52 7.45608 80.03264 3871 ft 251 kts 184°
2026-05-04 19:53 7.43862 80.03232 3585 ft 251 kts 185°
2026-05-04 19:53 7.42118 80.03195 3306 ft 249 kts 184°
2026-05-04 19:53 7.40387 80.03160 3000 ft 248 kts 185°
2026-05-04 19:53 7.38660 80.03122 2717 ft 247 kts 186°
2026-05-04 19:54 7.37016 80.02737 2453 ft 240 kts 205°
2026-05-04 19:54 7.35621 80.01866 2245 ft 233 kts 218°
2026-05-04 19:54 7.34327 80.00883 2017 ft 233 kts 219°
2026-05-04 19:54 7.33057 79.99894 1819 ft 226 kts 219°
2026-05-04 19:55 7.31844 79.98948 1694 ft 214 kts 219°
2026-05-04 19:55 7.30682 79.98053 1618 ft 209 kts 218°
2026-05-04 19:55 7.29528 79.97167 1610 ft 211 kts 219°
2026-05-04 19:55 7.28390 79.96287 1586 ft 202 kts 217°
2026-05-04 19:56 7.27325 79.95456 1592 ft 192 kts 217°
2026-05-04 19:56 7.26305 79.94660 1574 ft 177 kts 215°
2026-05-04 19:56 7.25358 79.93931 1538 ft 168 kts 216°
2026-05-04 19:56 7.24453 79.93236 1319 ft 159 kts 215°
2026-05-04 19:57 7.23590 79.92575 1098 ft 153 kts 215°
2026-05-04 19:57 7.22755 79.91935 907 ft 149 kts 215°
2026-05-04 19:57 7.21932 79.91309 714 ft 148 kts 213°
2026-05-04 19:57 7.21107 79.90699 556 ft 148 kts 219°
2026-05-04 19:58 7.20303 79.90039 350 ft 150 kts 215°
2026-05-04 19:58 7.19468 79.89411 113 ft 150 kts 216°
2026-05-04 19:58 7.18684 79.88823 35 ft 123 kts 221°
2026-05-04 19:58 7.18119 79.88389 35 ft 69 kts 219°
2026-05-04 19:59 7.17949 79.88260 36 ft 18 kts 218°
2026-05-04 19:59 7.17898 79.88232 36 ft 9 kts 188°
2026-05-04 19:59 7.17846 79.88260 36 ft 0 kts 133°
2026-05-04 19:59 7.17834 79.88274 34 ft 5 kts 128°
2026-05-04 20:00 7.17807 79.88308 33 ft 8 kts 130°
2026-05-04 20:00 7.17799 79.88364 34 ft 9 kts 66°
2026-05-04 20:00 7.17836 79.88404 34 ft 5 kts 45°
2026-05-04 20:00 7.17850 79.88449 34 ft 8 kts 103°
2026-05-04 20:01 7.17818 79.88493 34 ft 6 kts 146°
2026-05-04 20:01 7.17779 79.88477 34 ft 7 kts 217°
2026-05-04 20:01 7.17755 79.88462 34 ft 0 kts 213°
2026-05-04 20:01 7.17751 79.88459 34 ft 0 kts 212°